When you browse on this site, cookies collect data to enhance your experience and personalize the content and advertising you see.
Visit our Privacy Policy to learn more. By continuing to use the site, you agree to this use of cookies and data.
  • en Suisse
  • Liste des pays
  • À 7 jours
  • Température de l'eau
  • Carte météo
  • Widgets météo
  • user-avatar
    Se connecter

    Météo par heure à Bar

    Ce jour, 7 Avril, Mardi

    Heure Température Précipitation Vent Pression Humidité
    00:00 -7°C° 0 mm 3 m/s 617 mmHg 76%
    01:00 -7°C° 0 mm 3 m/s 616 mmHg 75%
    02:00 -8°C° 0 mm 3 m/s 616 mmHg 73%
    03:00 -8°C° 0 mm 3 m/s 616 mmHg 70%
    04:00 -8°C° 0 mm 3 m/s 616 mmHg 68%
    05:00 -7°C° 0 mm 3 m/s 617 mmHg 65%
    06:00 -5°C° 0 mm 3 m/s 617 mmHg 62%
    07:00 -4°C° 0 mm 3 m/s 618 mmHg 59%
    08:00 -1°C° 0 mm 3 m/s 619 mmHg 58%
    09:00 0°C° 0 mm 3 m/s 619 mmHg 56%
    10:00 +2°C° 0 mm 3 m/s 620 mmHg 55%
    11:00 +3°C° 0 mm 3 m/s 620 mmHg 53%
    12:00 +3°C° 0 mm 3 m/s 620 mmHg 51%
    13:00 +4°C° 0 mm 3 m/s 620 mmHg 49%
    14:00 +3°C° 0 mm 3 m/s 620 mmHg 51%
    15:00 +3°C° 0 mm 3 m/s 620 mmHg 52%
    16:00 +3°C° 0 mm 3 m/s 619 mmHg 54%
    17:00 +1°C° 0 mm 3 m/s 619 mmHg 58%
    18:00 -1°C° 0 mm 3 m/s 618 mmHg 61%
    19:00 -5°C° 0 mm 3 m/s 618 mmHg 65%
    20:00 -5°C° 0 mm 3 m/s 618 mmHg 66%
    21:00 -6°C° 0 mm 3 m/s 618 mmHg 66%
    22:00 -6°C° 0 mm 3 m/s 618 mmHg 66%
    23:00 -7°C° 0 mm 3 m/s 618 mmHg 66%

    Demain, 8 Avril, Mercredi

    Heure Température Précipitation Vent Pression Humidité
    00:00 -7°C° 0 mm 3 m/s 618 mmHg 65%
    01:00 -7°C° 0 mm 3 m/s 617 mmHg 65%
    02:00 -7°C° 0 mm 3 m/s 617 mmHg 66%
    03:00 -8°C° 0 mm 3 m/s 617 mmHg 67%
    04:00 -8°C° 0 mm 3 m/s 617 mmHg 69%
    05:00 -7°C° 0 mm 3 m/s 617 mmHg 67%
    06:00 -6°C° 0 mm 3 m/s 617 mmHg 65%
    07:00 -5°C° 0 mm 3 m/s 618 mmHg 63%
    08:00 -2°C° 0 mm 3 m/s 618 mmHg 59%
    09:00 0°C° 0 mm 3 m/s 619 mmHg 56%
    10:00 +2°C° 0 mm 3 m/s 619 mmHg 52%
    11:00 +4°C° 0 mm 2 m/s 619 mmHg 50%
    12:00 +5°C° 0 mm 2 m/s 619 mmHg 48%
    13:00 +5°C° 0 mm 2 m/s 619 mmHg 46%
    14:00 +5°C° 0 mm 2 m/s 619 mmHg 47%
    15:00 +5°C° 0 mm 2 m/s 618 mmHg 49%
    16:00 +5°C° 0 mm 2 m/s 618 mmHg 50%
    17:00 +3°C° 0 mm 2 m/s 617 mmHg 57%
    18:00 +1°C° 0 mm 2 m/s 616 mmHg 63%
    19:00 -2°C° 0 mm 2 m/s 615 mmHg 70%
    20:00 -3°C° 0 mm 2 m/s 616 mmHg 69%
    21:00 -3°C° 0 mm 2 m/s 616 mmHg 69%
    22:00 -4°C° 0 mm 2 m/s 616 mmHg 69%
    23:00 -4°C° 0 mm 2 m/s 615 mmHg 69%

    Après-demain, 9 Avril, Jeudi

    Heure Température Précipitation Vent Pression Humidité
    00:00 -4°C° 0 mm 2 m/s 615 mmHg 68%
    01:00 -4°C° 0 mm 2 m/s 615 mmHg 67%
    02:00 -4°C° 0 mm 2 m/s 614 mmHg 67%
    03:00 -5°C° 0 mm 2 m/s 614 mmHg 66%
    04:00 -5°C° 0 mm 2 m/s 614 mmHg 65%
    05:00 -3°C° 0 mm 2 m/s 615 mmHg 63%
    06:00 -2°C° 0 mm 2 m/s 615 mmHg 60%
    07:00 -1°C° 0 mm 2 m/s 616 mmHg 58%
    08:00 +2°C° 0 mm 2 m/s 616 mmHg 53%
    09:00 +5°C° 0 mm 1 m/s 617 mmHg 47%
    10:00 +7°C° 0 mm 1 m/s 618 mmHg 42%
    11:00 +8°C° 0 mm 1 m/s 618 mmHg 41%
    12:00 +9°C° 0 mm 1 m/s 618 mmHg 41%
    13:00 +9°C° 0 mm 2 m/s 618 mmHg 40%
    14:00 +10°C° 0 mm 1 m/s 617 mmHg 42%
    15:00 +9°C° 0 mm 1 m/s 617 mmHg 45%
    16:00 +9°C° 0 mm 1 m/s 617 mmHg 47%
    17:00 +7°C° 0 mm 1 m/s 616 mmHg 54%
    18:00 +5°C° 0 mm 1 m/s 615 mmHg 61%
    19:00 +3°C° 0 mm 1 m/s 614 mmHg 68%
    20:00 +1°C° 0 mm 2 m/s 614 mmHg 68%
    21:00 +1°C° 0 mm 2 m/s 614 mmHg 67%
    22:00 -1°C° 0 mm 2 m/s 615 mmHg 67%
    23:00 -1°C° 0 mm 2 m/s 614 mmHg 68%

    10 Avril, Vendredi

    Heure Température Précipitation Vent Pression Humidité
    00:00 -2°C° 0 mm 2 m/s 614 mmHg 69%
    01:00 -2°C° 0 mm 2 m/s 614 mmHg 70%
    02:00 -2°C° 0 mm 2 m/s 614 mmHg 72%
    03:00 -2°C° 0 mm 2 m/s 614 mmHg 74%
    04:00 -3°C° 0 mm 2 m/s 614 mmHg 75%
    05:00 -2°C° 0 mm 2 m/s 614 mmHg 74%
    06:00 +1°C° 0 mm 2 m/s 615 mmHg 72%
    07:00 +2°C° 0 mm 2 m/s 615 mmHg 70%
    08:00 +3°C° 0 mm 2 m/s 616 mmHg 63%
    09:00 +5°C° 0 mm 2 m/s 617 mmHg 57%
    10:00 +7°C° 0 mm 2 m/s 617 mmHg 50%
    11:00 +8°C° 0 mm 2 m/s 617 mmHg 49%
    12:00 +8°C° 0 mm 2 m/s 618 mmHg 48%
    13:00 +9°C° 0 mm 2 m/s 618 mmHg 47%
    14:00 +9°C° 0 mm 2 m/s 617 mmHg 49%
    15:00 +9°C° 0 mm 2 m/s 617 mmHg 51%
    16:00 +9°C° 0 mm 3 m/s 617 mmHg 53%
    17:00 +7°C° 0 mm 2 m/s 616 mmHg 60%
    18:00 +5°C° 0 mm 2 m/s 616 mmHg 67%
    19:00 +3°C° 0 mm 2 m/s 615 mmHg 74%
    20:00 +2°C° 0 mm 2 m/s 615 mmHg 77%
    21:00 +2°C° 0 mm 2 m/s 615 mmHg 79%
    22:00 +1°C° 0 mm 2 m/s 615 mmHg 81%
    23:00 +1°C° 0 mm 2 m/s 615 mmHg 81%

    11 Avril, Samedi

    Heure Température Précipitation Vent Pression Humidité
    00:00 +1°C° 0 mm 2 m/s 615 mmHg 81%
    01:00 +1°C° 0 mm 2 m/s 615 mmHg 82%
    02:00 +1°C° 0 mm 2 m/s 615 mmHg 81%
    03:00 -1°C° 0 mm 2 m/s 615 mmHg 81%
    04:00 -1°C° 0 mm 2 m/s 615 mmHg 81%
    05:00 +1°C° 0 mm 2 m/s 615 mmHg 78%
    06:00 +2°C° 0 mm 2 m/s 616 mmHg 75%
    07:00 +3°C° 0 mm 2 m/s 616 mmHg 72%
    08:00 +5°C° 0 mm 2 m/s 617 mmHg 65%
    09:00 +6°C° 0 mm 2 m/s 617 mmHg 58%
    10:00 +8°C° 0 mm 1 m/s 618 mmHg 52%
    11:00 +9°C° 0 mm 1 m/s 618 mmHg 50%
    12:00 +10°C° 0 mm 1 m/s 618 mmHg 48%
    13:00 +11°C° 0 mm 1 m/s 618 mmHg 47%
    14:00 +10°C° 0 mm 1 m/s 618 mmHg 50%
    15:00 +9°C° 0 mm 1 m/s 618 mmHg 53%
    16:00 +9°C° 0 mm 1 m/s 617 mmHg 56%
    17:00 +8°C° 0 mm 1 m/s 617 mmHg 61%
    18:00 +6°C° 0 mm 1 m/s 616 mmHg 67%
    19:00 +5°C° 0 mm 1 m/s 616 mmHg 72%
    20:00 +4°C° 0 mm 1 m/s 616 mmHg 74%
    21:00 +4°C° 0 mm 1 m/s 616 mmHg 75%
    22:00 +3°C° 0 mm 1 m/s 616 mmHg 76%
    23:00 +3°C° 0 mm 1 m/s 616 mmHg 77%

    12 Avril, Dimanche

    Heure Température Précipitation Vent Pression Humidité
    00:00 +2°C° 0 mm 1 m/s 615 mmHg 78%
    01:00 +2°C° 0 mm 1 m/s 615 mmHg 79%
    02:00 +2°C° 0 mm 1 m/s 615 mmHg 79%
    03:00 +1°C° 0 mm 1 m/s 615 mmHg 80%
    04:00 +1°C° 0 mm 1 m/s 614 mmHg 80%
    05:00 +2°C° 0 mm 1 m/s 615 mmHg 77%
    06:00 +3°C° 0 mm 1 m/s 615 mmHg 74%
    07:00 +5°C° 0 mm 1 m/s 616 mmHg 71%
    08:00 +6°C° 0 mm 1 m/s 616 mmHg 64%
    09:00 +8°C° 0 mm 1 m/s 617 mmHg 57%
    10:00 +9°C° 0 mm 1 m/s 617 mmHg 49%
    11:00 +10°C° 0 mm 1 m/s 617 mmHg 48%
    12:00 +10°C° 0 mm 1 m/s 617 mmHg 47%
    13:00 +11°C° 0 mm 1 m/s 617 mmHg 46%
    14:00 +11°C° 0 mm 1 m/s 617 mmHg 49%
    15:00 +9°C° 0 mm 2 m/s 616 mmHg 51%
    16:00 +9°C° 0 mm 2 m/s 616 mmHg 53%
    17:00 +8°C° 0 mm 1 m/s 615 mmHg 62%
    18:00 +6°C° 0 mm 1 m/s 615 mmHg 71%
    19:00 +5°C° 0 mm 1 m/s 614 mmHg 80%
    20:00 +4°C° 0 mm 1 m/s 614 mmHg 80%
    21:00 +4°C° 0 mm 1 m/s 614 mmHg 81%
    22:00 +3°C° 0 mm 1 m/s 614 mmHg 82%
    23:00 +3°C° 0 mm 1 m/s 614 mmHg 82%
    Voir plus